Date,TemperatureHighF,TemperatureAvgF,TemperatureLowF,DewpointHighF,DewpointAvgF,DewpointLowF,HumidityHigh,HumidityAvg,HumidityLow,PressureMaxIn,PressureMinIn,WindSpeedMaxMPH,WindSpeedAvgMPH,GustSpeedMaxMPH,PrecipitationSumIn
2013-3-1,61,47,36,41,35,28,100,66,30,0.00,40.00,7,3,15,0.00
2013-3-2,49,39,29,33,27,23,99,65,42,0.00,40.00,8,4,21,0.00
2013-3-3,56,40,26,38,26,17,100,64,22,0.00,40.00,7,3,17,0.00
2013-3-4,65,51,32,56,44,32,100,79,54,0.00,40.00,9,5,21,0.00
2013-3-5,73,64,44,61,54,41,90,71,50,0.00,40.00,10,6,22,0.00
2013-3-6,63,48,35,41,31,24,98,60,25,0.00,40.00,8,4,23,0.00
2013-3-7,62,46,34,43,36,31,100,71,32,0.00,40.00,5,2,13,0.00
2013-3-8,71,51,34,47,40,34,100,72,28,0.00,40.00,7,2,12,0.00
2013-3-9,69,57,43,60,52,43,100,84,50,0.00,40.00,10,5,19,0.00
2013-3-10,74,67,63,64,62,59,91,83,67,0.00,40.00,13,9,26,0.00
2013-3-11,67,57,41,67,54,41,100,89,64,0.00,40.00,10,5,22,0.06
2013-3-12,68,50,38,44,38,33,100,71,29,0.00,40.00,8,3,17,0.04
2013-3-13,67,51,37,41,32,19,100,58,16,0.00,40.00,8,4,22,0.00
2013-3-14,68,49,39,41,29,18,98,52,18,0.00,40.00,6,3,14,0.00
2013-3-15,69,54,36,52,42,36,100,72,34,0.00,40.00,8,3,18,0.00
2013-3-16,74,62,46,59,54,46,100,77,50,0.00,40.00,8,4,19,0.00
2013-3-17,75,61,49,64,58,49,100,90,58,0.00,40.00,7,3,14,0.00
2013-3-18,79,70,65,70,67,61,100,89,69,0.00,40.00,7,5,18,0.00
2013-3-19,79,65,54,68,56,45,100,76,35,0.00,40.00,7,4,18,0.05
2013-3-20,68,56,41,54,39,32,100,56,27,0.00,40.00,8,4,21,0.00
2013-3-21,66,50,36,46,37,26,99,67,22,0.00,40.00,7,2,14,0.00
2013-3-22,67,59,45,60,53,45,99,81,62,0.00,40.00,12,6,22,0.01
2013-3-23,74,68,62,71,65,57,100,92,82,0.00,40.00,8,5,18,0.16
2013-3-24,77,67,48,71,56,30,100,70,36,0.00,40.00,12,6,25,0.02
2013-3-25,61,48,36,33,26,18,81,48,19,0.00,40.00,12,6,23,0.00
2013-3-26,57,43,31,32,26,21,90,57,25,0.00,40.00,8,4,21,0.00
2013-3-27,59,43,28,36,31,25,100,67,32,0.00,40.00,7,3,15,0.00
2013-3-28,66,57,41,43,39,30,98,57,26,0.00,40.00,8,4,21,0.00
2013-3-29,69,54,36,55,46,36,100,78,41,0.00,40.00,9,3,18,0.00
2013-3-30,74,61,45,61,53,45,100,79,48,0.00,40.00,8,4,18,0.00
2013-3-31,77,65,53,66,61,53,100,90,63,0.00,40.00,8,3,18,0.37